QPF
0.03 0.04 0.03 0.01 0.01 0.00 0.00 0.01 0.02 0.02 0.02 0.02 0.01 0.01 0.00 0.00 0.01 0.01 0.01 0.01 0.01 0.01 0.02 0.03 0.04 0.02 0.03 0.03 0.02 0.03 0.05 0.08 0.11 0.12 0.10 0.11 0.14 0.13 0.12 0.13 0.16 0.20 0.13 0.09
0.03 0.03 0.01 0.00 0.00 0.00 0.01 0.01 0.01 0.02 0.02 0.02 0.01 0.01 0.01 0.00 0.01 0.01 0.01 0.01 0.01 0.01 0.02 0.02 0.03 0.03 0.02 0.02 0.02 0.02 0.04 0.06 0.10 0.13 0.09 0.07 0.12 0.16 0.14 0.13 0.14 0.20 0.19 0.13
0.02 0.02 0.01 0.01 0.01 0.01 0.01 0.01 0.01 0.01 0.02 0.02 0.02 0.02 0.01 0.00 0.00 0.01 0.01 0.01 0.01 0.01 0.02 0.02 0.01 0.01 0.02 0.02 0.02 0.02 0.02 0.05 0.08 0.14 0.11 0.07 0.09 0.13 0.14 0.12 0.12 0.13 0.16 0.14
0.01 0.01 0.01 0.01 0.01 0.02 0.01 0.00 0.00 0.01 0.02 0.03 0.03 0.03 0.01 0.01 0.01 0.01 0.01 0.01 0.01 0.01 0.02 0.01 0.01 0.01 0.01 0.02 0.02 0.02 0.02 0.04 0.07 0.14 0.15 0.08 0.06 0.10 0.11 0.10 0.12 0.12 0.13 0.14
0.02 0.01 0.01 0.01 0.01 0.02 0.01 0.00 0.01 0.01 0.02 0.03 0.03 0.02 0.01 0.01 0.01 0.01 0.01 0.01 0.01 0.02 0.02 0.02 0.01 0.02 0.02 0.02 0.03 0.02 0.03 0.04 0.07 0.12 0.18 0.11 0.05 0.06 0.10 0.08 0.07 0.09 0.11 0.12
0.01 0.01 0.01 0.01 0.02 0.01 0.01 0.01 0.02 0.02 0.03 0.04 0.03 0.02 0.02 0.01 0.01 0.01 0.01 0.01 0.02 0.03 0.04 0.04 0.03 0.03 0.03 0.03 0.04 0.04 0.03 0.04 0.07 0.11 0.16 0.15 0.07 0.04 0.07 0.09 0.06 0.05 0.06 0.08
0.01 0.01 0.01 0.01 0.02 0.01 0.01 0.02 0.04 0.05 0.05 0.03 0.02 0.02 0.02 0.01 0.02 0.02 0.02 0.02 0.02 0.03 0.04 0.04 0.05 0.04 0.03 0.03 0.05 0.05 0.05 0.06 0.08 0.12 0.13 0.16 0.11 0.05 0.03 0.07 0.07 0.05 0.05 0.06
0.02 0.02 0.02 0.01 0.02 0.02 0.02 0.02 0.03 0.03 0.03 0.02 0.01 0.02 0.02 0.01 0.02 0.02 0.02 0.02 0.02 0.02 0.03 0.04 0.05 0.05 0.03 0.03 0.04 0.05 0.06 0.07 0.08 0.13 0.14 0.14 0.13 0.08 0.04 0.03 0.05 0.04 0.04 0.04
0.02 0.02 0.01 0.01 0.01 0.02 0.02 0.03 0.02 0.03 0.03 0.02 0.02 0.03 0.02 0.01 0.01 0.01 0.02 0.02 0.02 0.02 0.03 0.03 0.03 0.04 0.04 0.04 0.04 0.05 0.06 0.07 0.08 0.11 0.15 0.15 0.12 0.09 0.05 0.03 0.04 0.03 0.03 0.03
0.01 0.01 0.00 0.00 0.01 0.02 0.02 0.02 0.02 0.03 0.03 0.02 0.02 0.02 0.02 0.01 0.01 0.01 0.01 0.02 0.02 0.02 0.02 0.03 0.03 0.03 0.03 0.04 0.05 0.05 0.06 0.08 0.08 0.10 0.14 0.17 0.16 0.10 0.06 0.04 0.04 0.04 0.03 0.03
0.01 0.02 0.01 0.01 0.01 0.01 0.01 0.01 0.01 0.02 0.02 0.03 0.03 0.03 0.02 0.02 0.02 0.01 0.02 0.02 0.03 0.03 0.02 0.02 0.03 0.03 0.02 0.03 0.04 0.05 0.06 0.08 0.09 0.10 0.12 0.16 0.18 0.14 0.08 0.06 0.05 0.04 0.03 0.03
0.01 0.02 0.01 0.01 0.00 0.00 0.01 0.01 0.01 0.01 0.01 0.01 0.02 0.02 0.01 0.01 0.01 0.02 0.02 0.02 0.03 0.03 0.02 0.02 0.02 0.02 0.03 0.02 0.03 0.04 0.06 0.07 0.08 0.08 0.10 0.12 0.14 0.14 0.10 0.07 0.06 0.05 0.04 0.03
0.02 0.02 0.02 0.01 0.01 0.01 0.01 0.01 0.01 0.01 0.01 0.02 0.02 0.02 0.00 0.00 0.01 0.01 0.02 0.02 0.03 0.02 0.02 0.02 0.02 0.02 0.03 0.02 0.02 0.03 0.05 0.06 0.08 0.08 0.09 0.09 0.10 0.11 0.10 0.07 0.06 0.06 0.06 0.04
0.02 0.02 0.02 0.01 0.01 0.01 0.01 0.00 0.01 0.01 0.02 0.02 0.01 0.01 0.00 0.00 0.01 0.01 0.01 0.02 0.03 0.03 0.02 0.02 0.02 0.02 0.03 0.03 0.02 0.02 0.03 0.04 0.06 0.07 0.09 0.09 0.08 0.09 0.09 0.08 0.05 0.05 0.04 0.04
0.01 0.02 0.01 0.01 0.01 0.01 0.01 0.01 0.00 0.01 0.01 0.01 0.01 0.01 0.01 0.01 0.01 0.01 0.01 0.02 0.02 0.02 0.02 0.02 0.01 0.01 0.02 0.01 0.01 0.01 0.02 0.03 0.04 0.06 0.08 0.09 0.10 0.09 0.09 0.08 0.06 0.04 0.04 0.04
0.00 0.01 0.01 0.01 0.00 0.01 0.01 0.01 0.01 0.01 0.01 0.01 0.01 0.01 0.01 0.01 0.01 0.01 0.01 0.02 0.02 0.02 0.02 0.02 0.02 0.01 0.02 0.02 0.02 0.02 0.02 0.03 0.03 0.04 0.06 0.08 0.10 0.11 0.10 0.07 0.06 0.04 0.04 0.03
0.01 0.01 0.01 0.01 0.00 0.01 0.01 0.01 0.01 0.01 0.01 0.01 0.01 0.01 0.01 0.01 0.01 0.01 0.02 0.02 0.02 0.02 0.02 0.02 0.02 0.02 0.01 0.01 0.01 0.01 0.02 0.02 0.02 0.03 0.04 0.06 0.07 0.09 0.11 0.09 0.07 0.05 0.04 0.04
0.01 0.01 0.02 0.01 0.01 0.01 0.01 0.00 0.00 0.01 0.01 0.01 0.02 0.02 0.02 0.02 0.02 0.01 0.02 0.02 0.03 0.03 0.02 0.02 0.02 0.02 0.01 0.01 0.01 0.01 0.01 0.01 0.01 0.02 0.02 0.03 0.05 0.06 0.08 0.09 0.09 0.07 0.06 0.05
0.01 0.01 0.02 0.01 0.01 0.01 0.01 0.01 0.01 0.01 0.01 0.01 0.01 0.01 0.01 0.02 0.01 0.01 0.01 0.02 0.02 0.02 0.03 0.02 0.02 0.02 0.02 0.01 0.01 0.01 0.01 0.01 0.01 0.01 0.01 0.02 0.03 0.04 0.05 0.07 0.07 0.07 0.06 0.06
0.01 0.01 0.02 0.01 0.01 0.01 0.01 0.00 0.00 0.01 0.01 0.01 0.01 0.01 0.01 0.01 0.02 0.02 0.01 0.01 0.01 0.02 0.02 0.02 0.02 0.01 0.01 0.01 0.01 0.01 0.01 0.01 0.01 0.01 0.01 0.01 0.02 0.03 0.03 0.05 0.06 0.06 0.05 0.05
0.01 0.01 0.02 0.01 0.02 0.01 0.01 0.00 0.01 0.02 0.02 0.01 0.01 0.01 0.01 0.02 0.02 0.02 0.01 0.01 0.01 0.01 0.01 0.01 0.01 0.01 0.01 0.01 0.01 0.01 0.01 0.01 0.01 0.01 0.01 0.01 0.02 0.03 0.03 0.03 0.04 0.05 0.05 0.04
0.00 0.01 0.01 0.01 0.02 0.01 0.00 0.01 0.01 0.01 0.01 0.01 0.01 0.01 0.01 0.01 0.01 0.01 0.01 0.00 0.00 0.00 0.01 0.01 0.01 0.01 0.01 0.01 0.01 0.01 0.01 0.01 0.01 0.01 0.01 0.01 0.02 0.02 0.03 0.03 0.03 0.03 0.04 0.04
0.00 0.01 0.01 0.01 0.01 0.01 0.01 0.01 0.01 0.01 0.01 0.01 0.01 0.01 0.01 0.01 0.01 0.01 0.01 0.00 0.00 0.00 0.01 0.01 0.01 0.01 0.01 0.01 0.01 0.01 0.01 0.01 0.01 0.02 0.02 0.02 0.02 0.02 0.02 0.03 0.03 0.03 0.03 0.03
0.01 0.00 0.01 0.01 0.01 0.01 0.01 0.01 0.01 0.01 0.01 0.00 0.00 0.00 0.01 0.01 0.01 0.01 0.01 0.01 0.00 0.00 0.00 0.01 0.01 0.01 0.01 0.02 0.02 0.02 0.01 0.01 0.02 0.02 0.03 0.03 0.04 0.03 0.02 0.03 0.03 0.03 0.03 0.03
0.01 0.01 0.02 0.01 0.01 0.01 0.01 0.00 0.00 0.00 0.00 0.00 0.00 0.00 0.00 0.01 0.01 0.01 0.01 0.01 0.01 0.01 0.00 0.01 0.01 0.01 0.01 0.02 0.02 0.02 0.02 0.02 0.02 0.02 0.02 0.03 0.05 0.05 0.04 0.03 0.03 0.03 0.03 0.03
0.00 0.01 0.02 0.01 0.01 0.01 0.01 0.00 0.00 0.00 0.00 0.00 0.00 0.00 0.00 0.00 0.01 0.01 0.01 0.01 0.01 0.01 0.01 0.01 0.01 0.01 0.01 0.02 0.02 0.03 0.03 0.02 0.03 0.03 0.02 0.04 0.05 0.07 0.06 0.04 0.04 0.04 0.03 0.03
MSLP
1024.64 1025.10 1025.54 1025.86 1025.98 1025.85 1025.51 1025.02 1024.50 1024.10 1023.91 1024.00 1024.37 1024.95 1025.62 1026.22 1026.58 1026.58 1026.16 1025.30 1024.05 1022.51 1020.80 1019.05 1017.36 1015.79 1014.38 1013.14 1012.05 1011.11 1010.34 1009.76 1009.41 1009.32 1009.52 1010.01 1010.75 1011.69 1012.74 1013.81 1014.82 1015.72 1016.48 1017.12
1025.29 1025.78 1026.24 1026.58 1026.70 1026.57 1026.23 1025.74 1025.23 1024.84 1024.68 1024.80 1025.21 1025.84 1026.55 1027.19 1027.59 1027.61 1027.19 1026.31 1025.02 1023.42 1021.64 1019.81 1018.02 1016.34 1014.81 1013.44 1012.22 1011.14 1010.22 1009.50 1009.00 1008.79 1008.88 1009.30 1010.01 1010.96 1012.05 1013.20 1014.30 1015.30 1016.15 1016.87
1025.97 1026.45 1026.89 1027.19 1027.28 1027.12 1026.75 1026.25 1025.74 1025.36 1025.20 1025.33 1025.76 1026.39 1027.12 1027.77 1028.19 1028.23 1027.82 1026.96 1025.69 1024.11 1022.34 1020.49 1018.68 1016.96 1015.36 1013.90 1012.55 1011.34 1010.27 1009.37 1008.71 1008.34 1008.30 1008.62 1009.27 1010.20 1011.32 1012.52 1013.71 1014.80 1015.75 1016.55
1026.66 1027.10 1027.49 1027.72 1027.74 1027.53 1027.12 1026.59 1026.06 1025.66 1025.49 1025.61 1026.01 1026.62 1027.33 1027.96 1028.36 1028.42 1028.05 1027.25 1026.05 1024.56 1022.87 1021.10 1019.34 1017.65 1016.04 1014.53 1013.10 1011.76 1010.54 1009.47 1008.64 1008.09 1007.89 1008.07 1008.62 1009.49 1010.60 1011.83 1013.08 1014.25 1015.28 1016.16
1027.37 1027.76 1028.07 1028.22 1028.16 1027.88 1027.41 1026.84 1026.28 1025.85 1025.65 1025.73 1026.08 1026.63 1027.28 1027.86 1028.24 1028.30 1027.98 1027.26 1026.18 1024.82 1023.28 1021.65 1020.01 1018.41 1016.85 1015.33 1013.86 1012.43 1011.07 1009.85 1008.83 1008.10 1007.72 1007.74 1008.16 1008.93 1009.98 1011.19 1012.45 1013.66 1014.76 1015.70
1028.10 1028.43 1028.67 1028.73 1028.59 1028.24 1027.72 1027.12 1026.54 1026.08 1025.85 1025.87 1026.15 1026.62 1027.17 1027.68 1028.01 1028.06 1027.77 1027.13 1026.18 1024.99 1023.62 1022.18 1020.70 1019.23 1017.76 1016.29 1014.81 1013.32 1011.87 1010.51 1009.33 1008.42 1007.85 1007.69 1007.93 1008.57 1009.50 1010.64 1011.86 1013.08 1014.20 1015.19
1028.81 1029.10 1029.28 1029.28 1029.08 1028.70 1028.16 1027.55 1026.96 1026.50 1026.23 1026.21 1026.41 1026.78 1027.23 1027.63 1027.89 1027.90 1027.62 1027.05 1026.21 1025.17 1023.99 1022.72 1021.42 1020.10 1018.75 1017.35 1015.90 1014.40 1012.89 1011.43 1010.12 1009.05 1008.31 1007.95 1008.01 1008.46 1009.23 1010.24 1011.37 1012.53 1013.64 1014.64
1029.48 1029.74 1029.88 1029.86 1029.64 1029.26 1028.75 1028.17 1027.63 1027.19 1026.93 1026.87 1027.00 1027.27 1027.61 1027.90 1028.05 1028.00 1027.70 1027.16 1026.40 1025.47 1024.43 1023.32 1022.18 1021.00 1019.77 1018.47 1017.08 1015.61 1014.08 1012.58 1011.18 1009.99 1009.09 1008.55 1008.40 1008.64 1009.21 1010.04 1011.03 1012.08 1013.13 1014.11
1030.05 1030.30 1030.43 1030.41 1030.24 1029.91 1029.47 1028.99 1028.53 1028.16 1027.93 1027.88 1027.97 1028.16 1028.39 1028.56 1028.60 1028.46 1028.11 1027.55 1026.81 1025.95 1025.00 1024.00 1022.98 1021.92 1020.80 1019.60 1018.29 1016.88 1015.39 1013.89 1012.46 1011.19 1010.17 1009.47 1009.12 1009.15 1009.49 1010.10 1010.89 1011.79 1012.73 1013.66
1030.48 1030.71 1030.86 1030.89 1030.79 1030.56 1030.25 1029.90 1029.58 1029.32 1029.18 1029.16 1029.24 1029.38 1029.53 1029.59 1029.52 1029.28 1028.84 1028.23 1027.47 1026.62 1025.71 1024.77 1023.82 1022.85 1021.82 1020.72 1019.51 1018.19 1016.78 1015.34 1013.92 1012.63 1011.53 1010.70 1010.18 1009.99 1010.10 1010.47 1011.03 1011.73 1012.52 1013.35
1030.73 1030.96 1031.13 1031.22 1031.22 1031.13 1030.97 1030.79 1030.63 1030.52 1030.49 1030.54 1030.65 1030.78 1030.87 1030.86 1030.69 1030.35 1029.83 1029.15 1028.34 1027.45 1026.53 1025.61 1024.70 1023.78 1022.83 1021.82 1020.72 1019.52 1018.23 1016.88 1015.54 1014.27 1013.15 1012.23 1011.57 1011.17 1011.05 1011.17 1011.49 1011.96 1012.56 1013.24
1030.82 1031.04 1031.24 1031.39 1031.49 1031.53 1031.53 1031.51 1031.52 1031.56 1031.66 1031.80 1031.97 1032.12 1032.19 1032.13 1031.91 1031.50 1030.91 1030.17 1029.31 1028.38 1027.44 1026.51 1025.61 1024.73 1023.85 1022.93 1021.95 1020.88 1019.72 1018.51 1017.27 1016.07 1014.96 1013.99 1013.22 1012.66 1012.32 1012.19 1012.26 1012.50 1012.88 1013.38
1030.81 1031.01 1031.21 1031.41 1031.58 1031.73 1031.85 1031.98 1032.13 1032.31 1032.52 1032.76 1033.00 1033.18 1033.27 1033.21 1032.97 1032.54 1031.92 1031.15 1030.27 1029.32 1028.37 1027.44 1026.56 1025.72 1024.90 1024.07 1023.21 1022.28 1021.27 1020.20 1019.09 1017.97 1016.90 1015.92 1015.07 1014.37 1013.84 1013.49 1013.32 1013.31 1013.46 1013.76
1030.77 1030.93 1031.12 1031.33 1031.53 1031.74 1031.94 1032.15 1032.39 1032.66 1032.96 1033.28 1033.58 1033.82 1033.95 1033.92 1033.72 1033.31 1032.72 1031.98 1031.12 1030.20 1029.28 1028.38 1027.54 1026.75 1026.00 1025.27 1024.52 1023.72 1022.86 1021.93 1020.94 1019.92 1018.91 1017.93 1017.02 1016.20 1015.52 1014.97 1014.58 1014.34 1014.26 1014.35
1030.75 1030.87 1031.03 1031.20 1031.39 1031.59 1031.80 1032.03 1032.30 1032.61 1032.96 1033.32 1033.67 1033.96 1034.15 1034.19 1034.06 1033.73 1033.23 1032.57 1031.80 1030.96 1030.11 1029.29 1028.52 1027.81 1027.14 1026.50 1025.86 1025.18 1024.45 1023.64 1022.76 1021.83 1020.87 1019.89 1018.95 1018.05 1017.24 1016.52 1015.94 1015.49 1015.21 1015.09
1030.80 1030.87 1030.96 1031.08 1031.20 1031.34 1031.50 1031.69 1031.92 1032.21 1032.54 1032.91 1033.28 1033.62 1033.88 1034.01 1033.98 1033.78 1033.41 1032.89 1032.26 1031.56 1030.84 1030.13 1029.47 1028.86 1028.29 1027.75 1027.20 1026.62 1025.99 1025.27 1024.48 1023.61 1022.69 1021.72 1020.75 1019.79 1018.88 1018.04 1017.30 1016.68 1016.21 1015.90
1030.88 1030.89 1030.92 1030.95 1030.98 1031.01 1031.07 1031.17 1031.32 1031.53 1031.82 1032.16 1032.53 1032.90 1033.22 1033.44 1033.54 1033.49 1033.29 1032.95 1032.51 1031.99 1031.43 1030.88 1030.35 1029.86 1029.39 1028.94 1028.48 1027.98 1027.41 1026.76 1026.02 1025.19 1024.29 1023.33 1022.33 1021.33 1020.35 1019.42 1018.57 1017.82 1017.20 1016.73
1030.91 1030.88 1030.83 1030.76 1030.68 1030.60 1030.54 1030.51 1030.55 1030.67 1030.88 1031.18 1031.53 1031.92 1032.29 1032.61 1032.84 1032.95 1032.93 1032.79 1032.55 1032.23 1031.87 1031.48 1031.10 1030.73 1030.37 1030.00 1029.61 1029.16 1028.64 1028.02 1027.31 1026.50 1025.61 1024.65 1023.65 1022.62 1021.60 1020.62 1019.70 1018.87 1018.14 1017.55
1030.77 1030.70 1030.59 1030.45 1030.27 1030.08 1029.89 1029.75 1029.69 1029.71 1029.84 1030.08 1030.42 1030.81 1031.23 1031.64 1031.98 1032.25 1032.41 1032.46 1032.42 1032.30 1032.12 1031.91 1031.68 1031.43 1031.17 1030.88 1030.53 1030.13 1029.63 1029.04 1028.34 1027.54 1026.66 1025.70 1024.70 1023.68 1022.66 1021.66 1020.71 1019.83 1019.04 1018.36
1030.36 1030.27 1030.12 1029.91 1029.66 1029.39 1029.12 1028.89 1028.74 1028.70 1028.77 1028.97 1029.29 1029.69 1030.16 1030.63 1031.08 1031.48 1031.79 1032.02 1032.16 1032.21 1032.21 1032.15 1032.05 1031.92 1031.74 1031.52 1031.23 1030.85 1030.38 1029.80 1029.12 1028.33 1027.46 1026.53 1025.55 1024.55 1023.55 1022.57 1021.63 1020.74 1019.92 1019.19
1029.62 1029.52 1029.34 1029.11 1028.82 1028.51 1028.21 1027.94 1027.76 1027.68 1027.73 1027.91 1028.22 1028.65 1029.15 1029.68 1030.22 1030.72 1031.16 1031.53 1031.81 1032.01 1032.14 1032.21 1032.23 1032.19 1032.10 1031.93 1031.69 1031.35 1030.90 1030.35 1029.69 1028.94 1028.10 1027.20 1026.26 1025.31 1024.35 1023.42 1022.51 1021.64 1020.82 1020.06
1028.57 1028.45 1028.28 1028.05 1027.77 1027.47 1027.18 1026.93 1026.75 1026.69 1026.75 1026.94 1027.28 1027.73 1028.26 1028.85 1029.45 1030.03 1030.56 1031.03 1031.42 1031.73 1031.97 1032.14 1032.25 1032.29 1032.26 1032.16 1031.96 1031.67 1031.26 1030.75 1030.13 1029.42 1028.63 1027.79 1026.91 1026.02 1025.12 1024.24 1023.38 1022.54 1021.74 1020.97
1027.26 1027.15 1027.00 1026.80 1026.58 1026.33 1026.10 1025.91 1025.79 1025.78 1025.88 1026.12 1026.49 1026.97 1027.54 1028.17 1028.82 1029.45 1030.05 1030.59 1031.05 1031.44 1031.76 1032.00 1032.17 1032.28 1032.31 1032.25 1032.11 1031.86 1031.51 1031.05 1030.49 1029.85 1029.12 1028.35 1027.54 1026.72 1025.89 1025.07 1024.25 1023.46 1022.67 1021.90
1025.85 1025.75 1025.63 1025.50 1025.35 1025.20 1025.07 1024.97 1024.94 1025.01 1025.18 1025.48 1025.89 1026.41 1027.02 1027.68 1028.36 1029.03 1029.66 1030.24 1030.75 1031.19 1031.55 1031.84 1032.06 1032.21 1032.29 1032.29 1032.19 1032.01 1031.71 1031.32 1030.83 1030.25 1029.60 1028.90 1028.16 1027.40 1026.64 1025.87 1025.10 1024.34 1023.58 1022.81
1024.45 1024.37 1024.31 1024.27 1024.22 1024.19 1024.18 1024.20 1024.28 1024.44 1024.70 1025.06 1025.52 1026.08 1026.71 1027.39 1028.09 1028.78 1029.44 1030.04 1030.57 1031.04 1031.42 1031.74 1031.99 1032.17 1032.28 1032.32 1032.27 1032.13 1031.90 1031.57 1031.15 1030.64 1030.06 1029.43 1028.75 1028.05 1027.33 1026.60 1025.87 1025.13 1024.39 1023.63
1023.19 1023.15 1023.17 1023.23 1023.30 1023.40 1023.53 1023.68 1023.87 1024.13 1024.46 1024.88 1025.38 1025.97 1026.62 1027.32 1028.02 1028.72 1029.38 1029.99 1030.53 1031.00 1031.40 1031.72 1031.98 1032.18 1032.31 1032.37 1032.36 1032.26 1032.08 1031.81 1031.44 1031.00 1030.48 1029.89 1029.26 1028.60 1027.91 1027.21 1026.51 1025.79 1025.05 1024.30
Thickness
5529 5517 5509 5508 5508 5507 5505 5501 5500 5505 5506 5500 5493 5492 5495 5495 5493 5491 5489 5489 5491 5493 5496 5499 5503 5507 5512 5517 5522 5527 5533 5539 5546 5552 5558 5563 5568 5573 5578 5582 5586 5589 5594 5598
5514 5503 5503 5504 5501 5497 5493 5490 5489 5493 5493 5488 5481 5481 5486 5487 5482 5480 5478 5477 5479 5481 5484 5487 5491 5495 5500 5505 5509 5515 5520 5527 5534 5540 5546 5551 5556 5562 5566 5571 5574 5578 5583 5587
5494 5494 5495 5492 5486 5482 5481 5477 5474 5472 5476 5477 5469 5469 5476 5476 5473 5470 5470 5469 5469 5470 5472 5475 5479 5483 5487 5492 5497 5502 5508 5515 5521 5527 5533 5540 5545 5550 5554 5558 5563 5567 5572 5577
5487 5486 5482 5477 5473 5468 5466 5473 5469 5465 5455 5453 5459 5445 5462 5462 5459 5458 5457 5457 5457 5458 5461 5464 5468 5472 5476 5480 5485 5490 5497 5502 5509 5515 5521 5527 5532 5536 5541 5545 5551 5556 5561 5566
5476 5471 5466 5464 5462 5459 5459 5461 5460 5456 5448 5441 5445 5436 5446 5450 5445 5445 5445 5445 5446 5448 5450 5453 5457 5461 5466 5470 5474 5478 5484 5490 5496 5502 5508 5514 5519 5524 5529 5534 5539 5545 5550 5554
5464 5463 5456 5451 5452 5454 5452 5452 5452 5448 5439 5428 5439 5433 5435 5434 5434 5436 5436 5436 5436 5437 5439 5442 5446 5450 5454 5458 5462 5467 5472 5478 5484 5490 5495 5501 5507 5512 5517 5522 5527 5532 5537 5543
5458 5453 5446 5441 5439 5444 5439 5431 5430 5428 5426 5431 5442 5432 5421 5423 5426 5427 5425 5425 5425 5426 5428 5430 5434 5438 5443 5447 5451 5455 5460 5466 5471 5477 5483 5488 5494 5500 5505 5510 5515 5520 5525 5530
5439 5438 5433 5427 5423 5420 5424 5422 5411 5407 5420 5429 5430 5420 5410 5415 5416 5416 5415 5414 5414 5415 5417 5420 5423 5426 5430 5435 5439 5444 5449 5453 5458 5464 5470 5475 5482 5488 5493 5498 5503 5508 5513 5518
5418 5423 5423 5421 5418 5413 5412 5410 5409 5399 5403 5401 5415 5412 5405 5406 5404 5403 5403 5403 5402 5403 5406 5408 5412 5415 5418 5422 5427 5432 5437 5441 5446 5452 5458 5463 5470 5475 5481 5486 5491 5496 5501 5507
5404 5401 5413 5413 5409 5403 5400 5398 5391 5390 5388 5395 5406 5403 5395 5385 5388 5390 5389 5389 5389 5392 5394 5397 5399 5402 5406 5410 5414 5419 5423 5428 5434 5439 5445 5452 5457 5463 5468 5473 5478 5484 5489 5494
5395 5387 5397 5400 5388 5386 5383 5380 5377 5378 5383 5381 5382 5382 5384 5381 5380 5378 5377 5378 5378 5380 5382 5384 5387 5390 5394 5397 5401 5405 5410 5415 5420 5426 5432 5438 5443 5450 5456 5461 5466 5472 5478 5483
5384 5378 5378 5388 5387 5382 5375 5368 5362 5357 5362 5370 5365 5362 5373 5369 5368 5368 5366 5368 5368 5370 5371 5372 5375 5378 5381 5384 5388 5392 5397 5402 5407 5414 5419 5425 5432 5437 5443 5449 5455 5460 5466 5471
5371 5361 5361 5377 5370 5362 5359 5356 5351 5347 5348 5350 5352 5354 5363 5358 5355 5354 5354 5355 5356 5357 5359 5360 5362 5365 5368 5371 5375 5379 5383 5388 5395 5401 5406 5412 5419 5425 5431 5437 5442 5448 5453 5458
5366 5350 5349 5354 5358 5350 5347 5346 5343 5337 5332 5336 5341 5345 5347 5344 5341 5341 5342 5342 5343 5345 5346 5348 5349 5352 5355 5358 5362 5367 5371 5377 5384 5389 5394 5399 5405 5412 5418 5424 5429 5435 5441 5446
5354 5342 5345 5348 5351 5347 5341 5339 5337 5330 5326 5324 5333 5335 5335 5332 5330 5330 5330 5331 5333 5334 5335 5336 5337 5339 5342 5346 5350 5354 5358 5364 5370 5376 5381 5387 5393 5400 5406 5412 5417 5423 5428 5434
5344 5334 5336 5337 5345 5342 5338 5334 5330 5327 5322 5320 5323 5323 5325 5323 5321 5320 5318 5319 5320 5320 5321 5323 5325 5327 5330 5333 5337 5342 5346 5351 5357 5363 5368 5374 5381 5387 5393 5399 5405 5411 5417 5423
5334 5324 5323 5330 5337 5330 5323 5321 5318 5315 5312 5309 5308 5310 5310 5310 5309 5306 5306 5306 5305 5306 5309 5310 5312 5314 5317 5320 5324 5328 5333 5339 5344 5350 5356 5362 5368 5374 5380 5386 5393 5399 5404 5411
5322 5316 5316 5319 5317 5305 5321 5319 5314 5308 5304 5300 5300 5299 5297 5297 5296 5296 5296 5294 5293 5295 5296 5299 5300 5303 5306 5309 5312 5317 5322 5327 5332 5338 5344 5349 5355 5361 5367 5374 5380 5386 5392 5398
5320 5311 5308 5308 5304 5313 5315 5309 5299 5292 5293 5294 5291 5291 5290 5289 5290 5290 5288 5285 5283 5284 5285 5287 5289 5292 5295 5297 5301 5305 5310 5315 5320 5326 5331 5337 5342 5348 5354 5361 5367 5374 5380 5386
5312 5304 5296 5300 5296 5299 5308 5297 5294 5288 5283 5289 5286 5282 5278 5278 5275 5278 5277 5276 5275 5275 5276 5278 5280 5282 5284 5287 5289 5294 5298 5303 5308 5313 5319 5324 5330 5336 5343 5350 5356 5362 5369 5375
5295 5292 5287 5288 5288 5292 5291 5288 5286 5279 5282 5280 5277 5273 5269 5265 5263 5264 5266 5266 5266 5266 5268 5269 5270 5271 5273 5275 5278 5282 5286 5291 5296 5301 5306 5312 5318 5325 5332 5339 5345 5351 5358 5364
5292 5286 5282 5283 5281 5285 5279 5278 5273 5272 5271 5270 5267 5264 5259 5257 5256 5256 5257 5256 5256 5257 5259 5259 5260 5261 5262 5264 5267 5271 5275 5280 5285 5290 5296 5302 5308 5315 5322 5327 5333 5339 5345 5352
5294 5290 5286 5283 5286 5284 5276 5271 5268 5264 5261 5259 5256 5254 5251 5248 5248 5248 5247 5247 5247 5247 5248 5249 5249 5251 5253 5255 5257 5260 5265 5269 5274 5279 5285 5292 5298 5304 5310 5316 5322 5327 5333 5339
5291 5286 5282 5277 5279 5276 5271 5266 5262 5257 5252 5250 5248 5245 5242 5239 5239 5238 5238 5238 5238 5238 5238 5239 5240 5241 5243 5245 5248 5251 5255 5259 5264 5269 5275 5281 5287 5292 5298 5303 5309 5315 5320 5326
5291 5276 5272 5267 5270 5268 5266 5261 5255 5250 5247 5243 5240 5237 5234 5232 5231 5230 5230 5230 5230 5230 5230 5230 5230 5232 5234 5237 5240 5243 5246 5250 5254 5259 5265 5271 5276 5281 5287 5292 5297 5302 5308 5313
5284 5272 5265 5268 5266 5259 5258 5255 5250 5243 5239 5235 5232 5229 5227 5225 5223 5223 5222 5221 5221 5221 5222 5222 5223 5225 5226 5228 5231 5234 5237 5240 5244 5250 5255 5260 5265 5270 5276 5281 5286 5292 5298 5305